Terminal Aerodrome Forecast
Issued by NWS

Home | Current Version | Previous Version | Text Only | Print | Product List | Glossary On
Versions: 1 2 3 4 5 6 7 8 9 10 11 12 13 14 15 16 17 18 19 20 21 22 23 24 25 26 27 28
000
FTUS43 KMKX 300242 AAA
TAFUES
TAF AMD
KUES 300242Z 3003/3024 05014G26KT 6SM -RA OVC050
     FM300400 06015G27KT 6SM -RA OVC020
     FM300900 06015G24KT P6SM VCSH OVC008
     FM301300 06014G23KT 6SM -SHRA OVC005=

USA.gov is the U.S. government's official web portal to all federal, state and local government web resources and services.